| time (UTC) | temp F | wind direction | speed MPH | gust MPH | rain 1hr in | rain 24hr in | rain mn in | humidity % | barometer mb |
| 20260509212136 | 62 | 90 | 1.0 | 2.0 | 0.00 | 0.18 | 0.18 | 76 | 1008.7 |
| 20260509211117 | 61 | 0.0 | 1.0 | 0.00 | 0.18 | 0.18 | 78 | 1008.8 | |
| 20260509210117 | 61 | 0.0 | 0.0 | 0.00 | 0.18 | 0.18 | 79 | 1008.8 | |
| 20260509205117 | 60 | 90 | 1.0 | 2.0 | 0.00 | 0.18 | 0.18 | 81 | 1008.9 |
| 20260509204116 | 59 | 293 | 1.0 | 1.0 | 0.00 | 0.18 | 0.18 | 81 | 1009.0 |
| 20260509203116 | 59 | 0.0 | 0.0 | 0.00 | 0.18 | 0.18 | 83 | 1009.1 | |
| 20260509202116 | 59 | 0.0 | 0.0 | 0.00 | 0.18 | 0.18 | 83 | 1009.2 | |
| 20260509201116 | 59 | 315 | 1.0 | 2.0 | 0.00 | 0.18 | 0.18 | 83 | 1009.2 |
| 20260509200116 | 59 | 293 | 1.0 | 1.0 | 0.00 | 0.18 | 0.18 | 83 | 1009.3 |
| 20260509195116 | 59 | 0.0 | 1.0 | 0.00 | 0.18 | 0.18 | 82 | 1008.8 | |
| 20260509194117 | 59 | 113 | 1.0 | 1.0 | 0.00 | 0.18 | 0.18 | 79 | 1008.6 |
| 20260509193117 | 59 | 0.0 | 0.0 | 0.00 | 0.18 | 0.18 | 81 | 1008.9 | |
| 20260509192137 | 59 | 0.0 | 0.0 | 0.00 | 0.18 | 0.18 | 81 | 1009.1 | |
| 20260509191136 | 59 | 293 | 1.0 | 2.0 | 0.00 | 0.18 | 0.18 | 81 | 1009.2 |
| 20260509190116 | 59 | 315 | 1.0 | 2.0 | 0.00 | 0.18 | 0.18 | 82 | 1009.2 |
| 20260509185117 | 59 | 293 | 2.0 | 3.0 | 0.00 | 0.18 | 0.18 | 82 | 1009.4 |
| 20260509184117 | 60 | 0.0 | 0.0 | 0.00 | 0.18 | 0.18 | 81 | 1009.5 | |
| 20260509183116 | 60 | 293 | 1.0 | 3.0 | 0.00 | 0.18 | 0.18 | 81 | 1009.8 |
| 20260509182116 | 60 | 0.0 | 1.0 | 0.00 | 0.18 | 0.18 | 79 | 1009.7 | |
| 20260509181117 | 60 | 135 | 2.0 | 3.0 | 0.00 | 0.18 | 0.18 | 80 | 1009.7 |
| 20260509180117 | 60 | 135 | 3.0 | 4.0 | 0.00 | 0.18 | 0.18 | 83 | 1009.9 |
| 20260509175137 | 59 | 0.0 | 0.0 | 0.01 | 0.18 | 0.18 | 85 | 1009.6 | |
| 20260509174117 | 57 | 0.0 | 0.0 | 0.01 | 0.18 | 0.18 | 87 | 1009.8 | |
| 20260509173116 | 57 | 68 | 1.0 | 1.0 | 0.01 | 0.18 | 0.18 | 87 | 1009.9 |
| 20260509172117 | 56 | 135 | 1.0 | 1.0 | 0.01 | 0.18 | 0.18 | 87 | 1010.4 |
| 20260509171116 | 56 | 0.0 | 0.0 | 0.01 | 0.18 | 0.18 | 86 | 1010.5 | |
| 20260509170117 | 56 | 0.0 | 1.0 | 0.01 | 0.18 | 0.18 | 87 | 1010.6 | |
| 20260509165137 | 56 | 113 | 2.0 | 3.0 | 0.00 | 0.17 | 0.17 | 85 | 1010.6 |
| 20260509164117 | 56 | 0.0 | 0.0 | 0.01 | 0.17 | 0.17 | 86 | 1010.6 | |
| 20260509163117 | 56 | 293 | 1.0 | 2.0 | 0.02 | 0.17 | 0.17 | 86 | 1010.5 |
| 20260509162116 | 56 | 0.0 | 1.0 | 0.04 | 0.17 | 0.17 | 87 | 1010.7 | |
| 20260509161137 | 55 | 0.0 | 0.0 | 0.06 | 0.17 | 0.17 | 89 | 1010.5 | |
| 20260509160117 | 55 | 0.0 | 0.0 | 0.09 | 0.17 | 0.17 | 88 | 1010.0 | |
| 20260509155137 | 55 | 0.0 | 0.0 | 0.12 | 0.17 | 0.17 | 90 | 1009.9 | |
| 20260509154117 | 54 | 0.0 | 0.0 | 0.13 | 0.16 | 0.16 | 88 | 1010.2 | |
| 20260509153117 | 54 | 0.0 | 0.0 | 0.13 | 0.15 | 0.15 | 88 | 1010.6 | |
| 20260509152117 | 54 | 0.0 | 0.0 | 0.11 | 0.13 | 0.13 | 88 | 1010.9 | |
| 20260509151137 | 55 | 0.0 | 0.0 | 0.10 | 0.11 | 0.11 | 88 | 1011.2 | |
| 20260509150116 | 55 | 0.0 | 0.0 | 0.08 | 0.08 | 0.08 | 87 | 1011.3 | |
| 20260509145117 | 55 | 0.0 | 0.0 | 0.05 | 0.05 | 0.05 | 86 | 1011.3 | |
| 20260509144116 | 55 | 0.0 | 0.0 | 0.03 | 0.03 | 0.03 | 85 | 1011.0 | |
| 20260509143117 | 56 | 0.0 | 0.0 | 0.02 | 0.02 | 0.02 | 84 | 1010.8 | |
| 20260509142116 | 56 | 0.0 | 0.0 | 0.02 | 0.02 | 0.02 | 82 | 1010.7 | |
| 20260509141116 | 56 | 0.0 | 0.0 | 0.01 | 0.01 | 0.01 | 79 | 1010.6 | |
| 20260509140137 | 56 | 0.0 | 0.0 | 0.00 | 0.00 | 0.00 | 77 | 1010.6 | |
| 20260509135117 | 56 | 315 | 1.0 | 1.0 | 0.00 | 0.00 | 0.00 | 76 | 1010.5 |
| 20260509134137 | 56 | 248 | 1.0 | 2.0 | 0.00 | 0.00 | 0.00 | 76 | 1010.5 |
| 20260509133117 | 55 | 293 | 1.0 | 2.0 | 0.00 | 0.00 | 0.00 | 78 | 1010.4 |
| 20260509132117 | 55 | 293 | 3.0 | 5.0 | 0.00 | 0.00 | 0.00 | 80 | 1010.4 |
| 20260509131137 | 54 | 315 | 2.0 | 4.0 | 0.00 | 0.00 | 0.00 | 82 | 1010.4 |
| 20260509130117 | 53 | 293 | 3.0 | 4.0 | 0.00 | 0.00 | 0.00 | 82 | 1010.4 |
| 20260509125117 | 52 | 293 | 1.0 | 2.0 | 0.00 | 0.00 | 0.00 | 83 | 1010.4 |
| 20260509124117 | 52 | 293 | 2.0 | 5.0 | 0.00 | 0.00 | 0.00 | 82 | 1010.4 |
| 20260509123117 | 52 | 270 | 1.0 | 2.0 | 0.00 | 0.00 | 0.00 | 83 | 1010.2 |
| 20260509122117 | 52 | 293 | 1.0 | 2.0 | 0.00 | 0.00 | 0.00 | 83 | 1010.4 |
| 20260509121117 | 51 | 293 | 2.0 | 4.0 | 0.00 | 0.00 | 0.00 | 83 | 1010.5 |
| 20260509120117 | 52 | 293 | 2.0 | 3.0 | 0.00 | 0.00 | 0.00 | 82 | 1010.8 |
| 20260509115117 | 52 | 315 | 2.0 | 3.0 | 0.00 | 0.00 | 0.00 | 81 | 1010.8 |
| 20260509114116 | 52 | 293 | 2.0 | 4.0 | 0.00 | 0.00 | 0.00 | 80 | 1010.6 |
| 20260509113117 | 51 | 270 | 1.0 | 2.0 | 0.00 | 0.00 | 0.00 | 81 | 1010.4 |
| 20260509112116 | 51 | 315 | 2.0 | 2.0 | 0.00 | 0.00 | 0.00 | 82 | 1010.5 |
| 20260509111117 | 51 | 270 | 2.0 | 3.0 | 0.00 | 0.00 | 0.00 | 82 | 1010.4 |
| 20260509110117 | 51 | 0.0 | 0.0 | 0.00 | 0.00 | 0.00 | 83 | 1010.3 | |
| 20260509105117 | 51 | 293 | 1.0 | 1.0 | 0.00 | 0.00 | 0.00 | 82 | 1010.1 |
| 20260509104117 | 51 | 0.0 | 1.0 | 0.00 | 0.00 | 0.00 | 82 | 1010.0 | |
| 20260509103137 | 51 | 0.0 | 0.0 | 0.00 | 0.00 | 0.00 | 81 | 1009.7 | |
| 20260509102137 | 50 | 135 | 1.0 | 1.0 | 0.00 | 0.00 | 0.00 | 80 | 1009.5 |
| 20260509101117 | 50 | 0.0 | 0.0 | 0.00 | 0.00 | 0.00 | 81 | 1009.7 | |
| 20260509100117 | 50 | 0.0 | 0.0 | 0.00 | 0.00 | 0.00 | 80 | 1009.8 | |
| 20260509095137 | 51 | 0.0 | 1.0 | 0.00 | 0.00 | 0.00 | 79 | 1009.8 | |
| 20260509094117 | 51 | 0.0 | 1.0 | 0.00 | 0.00 | 0.00 | 78 | 1009.8 | |
| 20260509093117 | 51 | 135 | 2.0 | 3.0 | 0.00 | 0.00 | 0.00 | 77 | 1009.9 |
| 20260509092117 | 51 | 135 | 2.0 | 3.0 | 0.00 | 0.00 | 0.00 | 76 | 1009.9 |
| 20260509091117 | 51 | 135 | 1.0 | 3.0 | 0.00 | 0.00 | 0.00 | 77 | 1009.9 |
| 20260509090117 | 51 | 0.0 | 1.0 | 0.00 | 0.00 | 0.00 | 77 | 1009.8 | |
| 20260509085157 | 51 | 0.0 | 0.0 | 0.00 | 0.00 | 0.00 | 76 | 1009.9 | |
| 20260509084117 | 52 | 0.0 | 0.0 | 0.00 | 0.00 | 0.00 | 77 | 1010.0 | |
| 20260509083117 | 51 | 0.0 | 0.0 | 0.00 | 0.00 | 0.00 | 77 | 1010.1 | |
| 20260509082117 | 51 | 0.0 | 0.0 | 0.00 | 0.00 | 0.00 | 78 | 1010.1 | |
| 20260509081117 | 51 | 0.0 | 0.0 | 0.00 | 0.00 | 0.00 | 78 | 1010.0 | |
| 20260509080117 | 51 | 0.0 | 0.0 | 0.00 | 0.00 | 0.00 | 79 | 1010.1 | |
| 20260509075117 | 50 | 0.0 | 0.0 | 0.00 | 0.00 | 0.00 | 79 | 1010.2 | |
| 20260509074117 | 50 | 0.0 | 0.0 | 0.00 | 0.00 | 0.00 | 80 | 1010.3 | |
| 20260509073117 | 50 | 0.0 | 0.0 | 0.00 | 0.00 | 0.00 | 79 | 1010.3 | |
| 20260509072117 | 50 | 0.0 | 0.0 | 0.00 | 0.00 | 0.00 | 79 | 1010.4 | |
| 20260509071117 | 50 | 0.0 | 0.0 | 0.00 | 0.00 | 0.00 | 79 | 1010.5 | |
| 20260509070117 | 50 | 0.0 | 0.0 | 0.00 | 0.00 | 0.00 | 78 | 1010.5 | |
| 20260509065117 | 50 | 0.0 | 0.0 | 0.00 | 0.00 | 0.00 | 78 | 1010.6 | |
| 20260509064117 | 51 | 0.0 | 0.0 | 0.00 | 0.00 | 0.00 | 77 | 1010.7 | |
| 20260509063117 | 51 | 0.0 | 0.0 | 0.00 | 0.00 | 0.00 | 77 | 1010.8 | |
| 20260509062117 | 51 | 0.0 | 0.0 | 0.00 | 0.00 | 0.00 | 75 | 1010.9 | |
| 20260509061117 | 51 | 0.0 | 0.0 | 0.00 | 0.00 | 0.00 | 75 | 1011.0 | |
| 20260509060117 | 52 | 0.0 | 0.0 | 0.00 | 0.00 | 0.00 | 74 | 1010.9 | |
| 20260509055117 | 52 | 0.0 | 0.0 | 0.00 | 0.00 | 0.00 | 73 | 1010.7 | |
| 20260509054117 | 53 | 0.0 | 0.0 | 0.00 | 0.00 | 0.00 | 72 | 1010.7 | |
| 20260509053117 | 54 | 0.0 | 0.0 | 0.00 | 0.00 | 0.00 | 71 | 1010.8 | |
| 20260509052117 | 54 | 0.0 | 0.0 | 0.00 | 0.00 | 0.00 | 68 | 1010.9 | |
| 20260509051117 | 54 | 0.0 | 0.0 | 0.00 | 0.00 | 0.00 | 68 | 1010.9 | |
| 20260509050117 | 54 | 135 | 2.0 | 4.0 | 0.00 | 0.00 | 0.00 | 67 | 1011.0 |
| 20260509045117 | 54 | 0.0 | 0.0 | 0.00 | 0.00 | 0.00 | 67 | 1011.1 | |
| 20260509044117 | 54 | 135 | 1.0 | 5.0 | 0.00 | 0.00 | 0.00 | 66 | 1011.2 |
| 20260509043138 | 54 | 135 | 1.0 | 2.0 | 0.00 | 0.00 | 0.00 | 67 | 1011.1 |
| 20260509042158 | 54 | 0.0 | 0.0 | 0.00 | 0.00 | 0.00 | 67 | 1011.3 | |
| 20260509041117 | 55 | 0.0 | 0.0 | 0.00 | 0.00 | 0.00 | 67 | 1011.2 | |
| 20260509040117 | 56 | 0.0 | 0.0 | 0.00 | 0.00 | 0.00 | 63 | 1011.1 | |
| 20260509035137 | 56 | 0.0 | 0.0 | 0.00 | 0.00 | 0.00 | 62 | 1011.2 | |
| 20260509034117 | 56 | 135 | 1.0 | 2.0 | 0.00 | 0.00 | 0.00 | 63 | 1011.2 |
| 20260509033116 | 56 | 0.0 | 0.0 | 0.00 | 0.00 | 0.00 | 62 | 1011.3 | |
| 20260509032117 | 56 | 0.0 | 0.0 | 0.00 | 0.00 | 0.00 | 62 | 1011.5 | |
| 20260509031137 | 56 | 158 | 1.0 | 1.0 | 0.00 | 0.00 | 0.00 | 62 | 1011.7 |
| 20260509030158 | 56 | 0.0 | 0.0 | 0.00 | 0.00 | 0.00 | 63 | 1011.8 | |
| 20260509025117 | 56 | 0.0 | 0.0 | 0.00 | 0.00 | 0.00 | 62 | 1011.6 | |
| 20260509024117 | 56 | 0.0 | 0.0 | 0.00 | 0.00 | 0.00 | 62 | 1011.7 | |
| 20260509023117 | 55 | 0.0 | 0.0 | 0.00 | 0.00 | 0.00 | 64 | 1011.5 | |
| 20260509022117 | 55 | 0.0 | 0.0 | 0.00 | 0.00 | 0.00 | 62 | 1011.6 | |
| 20260509021137 | 55 | 0.0 | 0.0 | 0.00 | 0.00 | 0.00 | 64 | 1011.6 | |
| 20260509020117 | 55 | 0.0 | 0.0 | 0.00 | 0.00 | 0.00 | 64 | 1011.3 | |
| 20260509015117 | 56 | 0.0 | 0.0 | 0.00 | 0.00 | 0.00 | 63 | 1011.2 | |
| 20260509014117 | 56 | 0.0 | 0.0 | 0.00 | 0.00 | 0.00 | 63 | 1011.1 | |
| 20260509013116 | 56 | 0.0 | 0.0 | 0.00 | 0.00 | 0.00 | 62 | 1011.0 | |
| 20260509012117 | 56 | 0.0 | 0.0 | 0.00 | 0.00 | 0.00 | 61 | 1011.0 | |
| 20260509011137 | 57 | 0.0 | 0.0 | 0.00 | 0.00 | 0.00 | 60 | 1011.1 | |
| 20260509010137 | 57 | 0.0 | 0.0 | 0.00 | 0.00 | 0.00 | 58 | 1011.0 | |
| 20260509005117 | 57 | 0.0 | 0.0 | 0.00 | 0.00 | 0.00 | 57 | 1011.0 | |
| 20260509004117 | 58 | 0.0 | 0.0 | 0.00 | 0.00 | 0.00 | 56 | 1011.0 | |
| 20260509003117 | 59 | 0.0 | 0.0 | 0.00 | 0.00 | 0.00 | 53 | 1011.0 | |
| 20260509002117 | 60 | 0.0 | 0.0 | 0.00 | 0.00 | 0.00 | 51 | 1010.9 | |
| 20260509001117 | 60 | 0.0 | 0.0 | 0.00 | 0.00 | 0.00 | 50 | 1011.0 | |
| 20260509000117 | 61 | 0.0 | 0.0 | 0.00 | 0.00 | 0.00 | 49 | 1010.9 | |
| 20260508235117 | 61 | 0.0 | 1.0 | 0.00 | 0.00 | 0.00 | 48 | 1010.9 | |
| 20260508234117 | 62 | 225 | 1.0 | 2.0 | 0.00 | 0.00 | 0.00 | 47 | 1010.7 |
| 20260508233117 | 62 | 270 | 3.0 | 4.0 | 0.00 | 0.00 | 0.00 | 46 | 1010.6 |
| 20260508232117 | 63 | 248 | 4.0 | 5.0 | 0.00 | 0.00 | 0.00 | 45 | 1010.2 |
| 20260508231117 | 64 | 248 | 2.0 | 4.0 | 0.00 | 0.00 | 0.00 | 44 | 1010.2 |
| 20260508230117 | 64 | 248 | 2.0 | 4.0 | 0.00 | 0.00 | 0.00 | 44 | 1010.2 |
| 20260508225117 | 64 | 248 | 3.0 | 5.0 | 0.00 | 0.00 | 0.00 | 44 | 1010.3 |
| 20260508224117 | 64 | 248 | 3.0 | 5.0 | 0.00 | 0.00 | 0.00 | 43 | 1010.2 |
| 20260508223158 | 64 | 248 | 2.0 | 2.0 | 0.00 | 0.00 | 0.00 | 44 | 1010.2 |
| 20260508222117 | 64 | 0.0 | 1.0 | 0.00 | 0.00 | 0.00 | 44 | 1010.0 | |
| 20260508221117 | 64 | 293 | 1.0 | 3.0 | 0.00 | 0.00 | 0.00 | 44 | 1010.0 |
| 20260508220117 | 65 | 225 | 3.0 | 4.0 | 0.00 | 0.00 | 0.00 | 42 | 1010.1 |
| 20260508215117 | 64 | 293 | 1.0 | 3.0 | 0.00 | 0.00 | 0.00 | 44 | 1010.2 |
| 20260508214117 | 64 | 225 | 3.0 | 5.0 | 0.00 | 0.00 | 0.00 | 42 | 1010.3 |
| 20260508213137 | 64 | 293 | 6.0 | 10.0 | 0.00 | 0.00 | 0.00 | 41 | 1010.2 |